Temperature
21 21 21 21 20 20 20 20 20 19 19 19 19 18 18 18 18 18 18 18 18 18 18 18 18 18 18 18 18 18 18 18 18 18 18 18 18 18 18 18 18 18 18
21 21 21 21 21 21 20 20 20 20 20 19 19 19 19 19 19 18 18 18 18 18 18 18 18 18 18 18 18 18 18 18 18 17 18 18 18 18 18 18 18 18 18
21 21 21 21 21 21 21 21 20 20 20 19 19 19 19 19 19 19 19 18 18 18 18 18 18 18 18 18 18 18 18 17 17 17 17 17 17 18 18 18 18 18 18
22 22 22 22 22 21 21 21 21 20 20 20 19 19 19 19 19 19 19 19 19 18 18 18 18 18 18 18 18 18 17 17 17 17 17 17 17 17 17 18 18 18 17
22 22 22 22 22 22 22 21 21 21 20 20 20 19 19 19 19 19 19 19 19 19 18 18 18 18 18 18 18 17 17 17 17 17 17 17 17 17 17 17 17 17 17
22 22 22 22 22 22 22 21 21 21 21 20 20 20 20 19 19 19 19 19 19 19 19 18 18 18 18 18 18 17 17 17 17 17 17 17 17 17 17 17 17 17 17
23 22 22 22 22 22 22 22 21 21 21 20 20 20 20 20 19 19 19 19 19 19 19 19 18 18 18 18 18 18 17 17 17 17 17 17 17 17 17 17 17 17 17
22 22 22 22 22 22 22 22 21 21 21 21 20 20 20 20 20 19 19 19 19 19 19 19 18 18 18 18 18 18 17 17 17 17 17 17 17 17 17 17 17 16 16
22 23 22 22 22 22 22 22 22 21 21 21 21 20 20 20 20 20 19 19 19 19 19 19 18 18 18 18 18 17 17 17 17 17 17 17 17 17 17 17 17 16 16
22 22 22 22 22 22 22 22 22 22 21 21 20 20 20 20 20 19 19 19 19 19 19 19 18 18 18 18 18 17 17 17 17 17 17 17 17 17 17 17 17 16 16
22 23 22 22 22 22 22 22 21 21 21 21 20 20 20 20 20 19 19 19 19 19 19 18 18 18 18 18 18 18 17 17 17 17 17 17 17 17 16 16 16 16 16
22 22 22 22 22 21 21 21 21 21 21 20 20 20 20 20 19 19 19 19 19 19 18 18 18 18 18 18 18 17 17 17 17 17 17 17 17 16 16 16 16 16 16
22 22 22 22 21 21 21 21 21 20 20 20 20 20 19 19 19 19 19 19 19 18 18 18 18 18 18 17 17 17 17 17 17 17 17 17 16 16 16 16 16 16 16
21 21 21 22 21 21 21 21 21 21 20 20 20 20 19 19 19 19 18 18 18 18 18 18 18 17 17 17 17 17 17 17 17 17 17 17 16 16 16 16 16 16 16
20 21 21 21 21 21 21 21 21 21 20 20 20 20 19 19 19 18 18 18 18 18 18 18 18 17 17 17 17 17 17 17 16 16 16 16 16 16 16 16 16 16 16
20 20 21 21 21 21 20 21 20 20 20 20 20 19 19 19 18 18 18 18 18 18 17 17 17 17 17 17 17 16 16 16 16 16 16 16 16 16 16 16 16 16 16
19 20 20 20 20 20 20 20 20 20 19 19 19 19 19 18 18 18 18 17 17 17 17 17 17 17 17 17 16 16 16 16 16 16 16 16 16 16 16 16 16 15 15
19 19 19 20 20 20 20 20 19 19 19 19 19 18 18 18 18 18 18 17 17 17 17 16 17 17 16 16 16 16 16 16 16 16 16 16 16 16 16 16 16 15 15
19 19 19 19 19 19 19 19 19 18 18 18 18 18 18 18 17 17 17 17 17 16 16 16 16 16 16 16 16 15 15 15 16 16 15 15 15 16 15 15 15 15 15
18 19 19 19 19 19 19 18 18 18 18 18 18 18 18 17 17 17 17 17 16 16 16 16 16 16 16 15 15 15 15 15 15 15 15 15 15 15 15 15 15 15 15
18 18 18 18 18 18 18 18 18 18 18 18 18 17 17 17 17 17 16 16 16 16 16 16 15 15 15 15 15 15 15 15 15 15 15 15 15 15 15 14 14 15 15
17 18 18 18 18 18 17 17 18 18 17 17 17 17 17 17 17 16 16 16 15 15 15 15 15 15 15 15 15 15 14 14 14 14 14 14 14 14 14 14 14 14 14
17 17 17 17 17 17 17 17 17 17 17 16 16 16 16 16 16 16 16 15 15 15 15 14 14 14 14 14 14 14 14 14 14 14 14 14 14 14 14 14 13 14 14
17 17 17 17 17 17 17 16 16 16 16 16 16 15 15 15 15 15 15 15 15 15 15 14 14 14 14 14 14 14 14 14 14 13 13 13 13 13 13 13 13 13 13
16 16 16 16 16 16 16 16 16 15 15 15 15 15 15 15 15 14 14 14 14 14 14 14 14 14 14 14 14 14 14 14 13 13 13 13 13 13 13 13 12 12 12
15 15 15 15 15 15 15 15 15 15 15 14 14 14 14 14 14 14 14 14 14 14 14 14 13 13 13 13 13 13 13 13 13 13 12 12 12 12 12 12 12 12 12
Wind_Speed
10 9 9 9 9 9 10 10 9 8 6 4 4 4 3 3 3 4 6 6 6 6 5 3 3 3 2 2 3 2 1 1 1 1 2 2 1 1 1 2 2 2 4
8 9 10 10 11 11 11 10 11 10 8 6 5 4 3 3 3 3 3 6 6 6 5 4 3 3 3 2 3 2 2 1 1 1 0 2 3 2 2 1 1 2 2
11 12 12 12 12 12 12 12 11 10 9 8 4 3 2 1 1 2 3 4 6 6 6 5 4 4 4 4 4 3 3 2 1 2 2 1 2 2 2 1 1 1 1
10 11 11 12 13 13 11 10 10 9 8 8 7 7 6 5 5 4 4 3 5 6 6 6 5 5 4 4 4 4 3 3 2 1 2 2 2 1 2 2 2 2 2
12 12 13 13 12 12 11 10 9 9 9 9 10 8 7 6 4 3 3 4 4 5 6 6 5 5 4 4 4 4 4 4 3 3 2 2 1 2 2 3 3 2 2
11 11 10 9 9 9 10 9 10 10 10 10 10 10 9 7 6 5 5 4 3 3 4 5 5 5 5 5 5 5 5 4 4 3 3 3 2 3 3 3 3 3 2
11 10 10 10 10 10 11 10 10 10 9 10 11 11 10 9 9 8 7 5 4 4 5 5 4 5 5 5 5 4 4 5 5 5 4 4 4 3 3 3 3 2 2
9 10 11 11 11 11 12 12 12 11 10 11 10 9 9 8 7 8 6 6 6 6 5 5 5 5 5 5 4 4 5 4 5 6 5 4 5 4 4 4 3 2 2
7 9 10 11 11 11 12 12 12 11 10 11 9 9 9 9 8 7 7 5 5 5 5 5 5 5 5 5 5 5 5 5 5 5 5 5 4 4 5 4 4 3 3
4 5 7 9 10 11 11 11 11 11 9 9 10 9 9 9 8 7 7 6 6 5 5 5 6 6 5 5 6 5 5 5 5 5 5 5 4 3 4 4 4 4 4
5 5 6 7 8 8 8 9 9 9 8 9 9 8 8 8 8 8 7 7 6 6 6 6 6 6 6 6 6 6 6 6 6 5 5 6 4 3 3 3 4 4 4
3 2 3 4 5 7 7 8 8 8 8 8 8 8 7 7 8 7 7 6 6 6 6 6 6 7 6 6 7 6 6 7 6 6 5 6 4 5 4 3 4 5 5
1 1 2 4 6 7 7 7 7 8 7 7 8 7 7 7 7 7 6 6 6 5 5 5 6 7 7 6 7 6 6 7 7 6 7 7 5 5 4 5 5 4 4
1 1 2 3 4 6 6 6 7 6 7 7 8 8 8 8 8 7 6 6 6 6 6 6 7 7 6 6 6 6 6 6 6 7 7 7 7 7 6 5 6 5 4
1 1 1 2 2 3 4 5 5 5 6 7 7 8 7 7 6 6 5 5 5 6 6 6 6 6 6 6 6 6 6 6 6 6 6 7 8 8 7 6 5 5 4
2 1 0 0 1 2 3 4 4 4 5 5 6 6 6 6 6 6 6 5 5 5 5 6 7 7 7 7 8 6 6 6 6 5 5 6 6 7 7 8 8 7 7
2 1 1 2 2 3 3 4 4 4 4 4 5 5 6 6 7 6 5 5 5 5 5 5 5 5 6 6 6 7 6 6 5 5 4 4 4 5 5 5 5 6 8
2 2 2 2 2 2 2 2 3 3 4 4 5 5 6 7 6 6 6 6 5 5 5 6 5 5 6 7 7 7 6 6 5 5 5 5 4 4 4 4 4 5 5
2 2 2 2 2 2 2 2 3 3 4 5 5 6 7 7 7 7 7 6 5 5 5 5 5 5 5 7 8 7 5 5 6 6 6 6 5 5 4 4 5 5 5
1 1 1 1 1 2 2 3 3 4 5 5 5 5 5 7 7 7 6 4 5 6 5 4 5 6 6 6 8 8 5 5 5 5 5 7 6 5 5 5 5 6 5
2 1 0 1 2 2 1 3 3 4 4 3 3 4 5 5 6 6 5 5 5 4 4 4 4 4 6 6 7 8 6 6 5 5 5 5 6 6 6 6 6 8 6
2 1 1 1 2 1 2 2 3 3 1 1 2 3 3 4 5 5 5 5 5 4 4 3 4 4 4 5 6 7 8 7 6 6 5 5 6 6 6 5 6 7 4
2 2 1 2 3 2 2 3 4 2 1 2 3 3 3 3 4 5 5 4 4 4 4 4 5 4 4 4 6 7 8 8 6 5 5 5 6 5 4 5 5 4 4
2 1 1 2 4 3 2 3 3 2 2 3 3 2 2 2 2 3 4 4 5 5 5 5 4 4 4 4 4 4 4 5 5 4 3 3 4 3 3 3 3 3 4
3 2 2 3 4 4 3 3 2 2 2 2 2 1 2 2 2 2 3 4 4 6 6 5 5 5 6 6 7 5 4 4 4 2 1 1 2 2 2 2 2 2 3
3 3 3 4 4 3 3 3 2 2 2 1 1 2 2 2 2 2 1 2 3 3 4 5 5 5 6 6 6 5 5 5 5 3 3 3 3 3 4 3 3 3 3
Wind_Direction
203 191 190 187 181 180 180 184 188 185 170 167 177 184 202 206 209 216 218 211 206 200 190 197 185 181 190 205 194 183 185 200 123 68 335 328 321 284 268 263 266 269 261
189 189 186 186 189 189 190 191 194 187 182 185 180 180 181 192 201 214 209 208 203 200 199 193 193 189 186 194 191 176 167 184 144 148 74 338 341 333 307 279 261 275 273
199 195 192 193 191 193 196 200 199 194 189 181 161 155 135 135 186 207 212 209 202 202 201 196 193 193 190 200 198 182 178 197 199 176 160 173 256 312 329 329 314 314 307
203 199 196 196 197 198 196 196 194 194 190 180 179 182 192 202 208 204 207 212 206 205 203 198 195 196 197 202 206 191 189 180 203 209 208 201 184 206 312 325 331 318 296
202 199 199 198 198 194 193 195 193 196 190 187 190 192 203 207 200 196 206 216 217 212 207 200 196 200 203 207 206 192 192 192 197 198 193 196 196 202 220 278 310 323 302
201 200 199 190 192 187 189 190 193 202 195 193 195 197 200 196 194 203 209 215 215 218 216 206 202 203 205 207 211 204 199 203 205 205 203 195 193 199 203 236 269 293 301
194 192 190 190 191 189 190 190 193 203 199 198 201 202 201 198 203 205 208 210 212 218 219 213 209 209 209 207 203 202 207 206 207 213 219 220 222 197 192 212 247 270 288
192 190 192 193 193 193 192 192 197 202 199 201 206 204 201 203 210 210 206 210 215 220 212 206 213 216 211 209 201 212 215 211 216 224 223 227 229 210 201 201 206 250 275
199 196 192 192 192 193 195 195 197 200 201 204 203 204 203 205 209 208 207 209 211 215 209 206 213 219 215 207 200 219 221 216 221 227 227 232 236 217 217 211 203 206 244
213 206 198 197 196 195 196 193 194 198 200 200 203 208 205 206 206 204 207 205 208 210 198 200 211 218 215 208 208 216 221 224 231 229 228 234 239 228 220 215 217 216 219
217 212 204 200 195 190 187 191 195 194 195 199 201 204 204 204 202 204 208 207 205 203 206 209 211 217 219 213 209 216 216 223 234 233 229 236 231 231 226 214 215 217 212
219 207 184 177 182 183 183 188 192 194 197 195 196 201 200 197 201 207 210 207 206 208 212 210 212 219 220 213 213 219 219 220 228 233 231 240 234 232 228 220 223 223 217
188 162 159 173 185 188 188 188 189 195 197 192 195 197 198 199 204 208 210 206 204 207 212 214 219 223 220 215 216 217 220 222 227 228 229 236 228 234 233 227 229 231 227
185 162 183 189 191 189 190 189 193 191 193 193 196 199 203 203 203 204 205 207 206 204 209 218 220 221 220 218 217 217 221 226 230 230 229 230 225 230 232 233 232 227 225
254 194 174 194 198 187 189 193 191 188 189 190 195 202 201 198 194 199 205 207 208 213 213 218 222 223 222 222 216 217 219 224 234 237 235 234 230 230 230 233 228 217 218
247 272 322 199 189 182 190 193 193 194 185 187 198 196 191 190 191 196 199 203 209 215 212 219 222 226 230 228 215 210 218 220 224 236 245 244 236 239 236 235 226 215 216
238 265 271 249 221 210 193 190 195 185 182 190 194 189 188 194 199 198 191 202 209 215 218 220 219 226 233 230 221 210 209 215 218 225 235 250 252 240 239 240 232 227 226
210 236 251 254 252 231 213 180 167 175 183 187 195 192 188 195 196 194 200 205 210 213 223 227 225 228 235 223 217 211 211 216 219 220 223 231 247 247 234 237 239 240 238
231 242 255 250 255 242 216 171 176 184 182 188 199 204 197 197 197 200 206 207 204 213 220 223 225 229 240 225 215 209 214 217 224 225 221 222 230 241 226 227 240 249 255
284 258 274 284 262 258 198 170 190 197 211 212 213 210 204 203 205 210 209 204 204 213 214 225 226 225 233 228 218 207 211 220 230 233 231 229 227 228 211 217 228 240 251
283 259 236 286 277 271 187 183 201 221 234 231 225 220 213 209 207 207 206 201 204 204 210 223 236 234 234 230 220 210 211 218 225 233 238 238 221 223 224 219 227 235 238
296 278 253 275 286 255 176 203 227 242 246 237 236 239 227 217 206 196 204 202 198 204 214 228 250 248 237 230 226 220 222 220 224 234 235 232 218 221 228 228 235 232 226
288 294 259 266 279 257 202 215 245 239 210 205 221 232 236 223 203 197 201 204 201 207 218 223 239 257 252 239 231 227 227 221 223 234 230 225 222 224 228 232 233 227 221
284 288 274 268 281 281 251 234 250 231 202 219 221 217 227 229 209 202 203 206 207 208 214 222 235 251 250 244 238 237 234 227 228 235 228 218 214 221 230 232 225 226 227
283 260 242 253 265 274 272 262 239 200 191 225 247 249 244 220 199 201 216 218 220 215 211 219 221 235 251 245 228 224 228 225 224 209 204 207 211 223 233 236 240 236 229
263 269 259 252 263 266 265 272 253 185 181 216 250 248 253 221 192 188 246 279 242 249 233 227 220 240 244 238 216 218 214 212 197 179 211 221 224 231 238 244 252 250 244
Height
1506 1509 1513 1516 1518 1521 1524 1526 1529 1531 1533 1536 1537 1539 1540 1542 1544 1545 1546 1548 1549 1550 1551 1552 1552 1553 1554 1554 1555 1555 1556 1556 1557 1557 1557 1557 1557 1557 1557 1557 1557 1557 1557
1503 1506 1509 1513 1516 1518 1521 1524 1526 1529 1531 1534 1536 1538 1539 1541 1542 1544 1545 1546 1548 1549 1550 1550 1551 1552 1552 1553 1553 1554 1554 1555 1556 1556 1556 1556 1556 1555 1555 1555 1556 1556 1556
1499 1502 1505 1509 1512 1515 1518 1521 1524 1526 1529 1532 1534 1536 1538 1539 1541 1542 1543 1545 1546 1547 1548 1549 1550 1550 1551 1551 1552 1552 1553 1554 1554 1555 1556 1555 1554 1554 1554 1554 1554 1554 1554
1496 1499 1502 1505 1508 1511 1515 1519 1521 1524 1527 1530 1532 1533 1535 1536 1538 1540 1541 1543 1544 1545 1546 1547 1548 1548 1549 1549 1550 1551 1551 1552 1552 1553 1553 1554 1554 1554 1553 1553 1553 1552 1552
1491 1494 1497 1500 1504 1508 1512 1515 1519 1521 1524 1527 1529 1531 1532 1534 1536 1538 1539 1540 1542 1543 1544 1544 1545 1546 1547 1547 1548 1549 1549 1550 1550 1551 1551 1552 1552 1552 1552 1551 1551 1551 1550
1487 1490 1494 1498 1501 1505 1508 1512 1515 1518 1520 1523 1525 1527 1529 1531 1533 1534 1536 1537 1539 1540 1541 1542 1543 1543 1544 1545 1545 1546 1547 1547 1548 1548 1549 1549 1549 1549 1549 1549 1548 1547 1548
1483 1486 1490 1493 1496 1500 1504 1507 1510 1513 1516 1519 1521 1524 1526 1528 1529 1531 1533 1534 1535 1537 1538 1539 1540 1540 1541 1542 1543 1543 1543 1544 1545 1545 1546 1546 1546 1547 1547 1546 1545 1545 1545
1479 1481 1484 1487 1491 1495 1499 1502 1505 1509 1512 1514 1517 1520 1522 1524 1526 1527 1529 1530 1532 1533 1534 1535 1536 1537 1538 1539 1539 1539 1540 1541 1541 1542 1543 1543 1543 1544 1544 1544 1543 1542 1542
1475 1477 1480 1483 1487 1490 1494 1497 1500 1504 1507 1510 1513 1515 1517 1519 1521 1523 1525 1526 1527 1529 1530 1531 1532 1533 1534 1535 1535 1536 1537 1538 1538 1539 1539 1540 1540 1540 1540 1541 1541 1541 1539
1473 1475 1477 1479 1483 1486 1490 1493 1496 1499 1502 1505 1508 1510 1512 1514 1517 1519 1520 1522 1523 1525 1526 1527 1529 1530 1530 1531 1532 1533 1533 1534 1535 1535 1536 1536 1537 1537 1537 1537 1537 1537 1537
1471 1472 1474 1476 1479 1483 1486 1489 1492 1495 1498 1501 1503 1505 1507 1509 1512 1514 1516 1518 1519 1521 1522 1523 1525 1526 1526 1527 1528 1529 1530 1530 1531 1532 1532 1532 1533 1533 1533 1534 1534 1534 1534
1469 1470 1472 1474 1477 1479 1482 1485 1488 1490 1493 1496 1498 1500 1503 1505 1507 1509 1511 1513 1515 1516 1518 1519 1520 1521 1522 1524 1524 1525 1525 1526 1527 1528 1528 1529 1529 1529 1529 1530 1530 1530 1530
1467 1468 1470 1471 1474 1476 1479 1482 1484 1487 1490 1492 1494 1496 1499 1501 1503 1505 1507 1509 1510 1512 1513 1515 1516 1517 1518 1519 1520 1521 1521 1522 1522 1523 1524 1525 1525 1525 1526 1526 1526 1526 1525
1466 1467 1468 1469 1471 1473 1476 1479 1481 1484 1486 1488 1490 1491 1494 1496 1499 1501 1503 1505 1506 1507 1508 1510 1511 1512 1513 1514 1515 1516 1517 1517 1518 1519 1520 1520 1521 1521 1521 1521 1522 1522 1521
1465 1466 1466 1467 1468 1469 1472 1475 1478 1480 1482 1484 1486 1488 1490 1493 1495 1497 1499 1500 1501 1502 1503 1505 1506 1507 1508 1509 1510 1511 1512 1513 1514 1514 1515 1515 1516 1516 1517 1517 1517 1517 1517
1465 1465 1466 1466 1467 1468 1470 1472 1474 1476 1478 1480 1482 1484 1486 1488 1490 1492 1494 1496 1497 1497 1498 1500 1500 1501 1503 1504 1505 1506 1507 1507 1508 1509 1510 1511 1511 1512 1512 1512 1512 1513 1512
1464 1465 1465 1465 1466 1467 1468 1470 1471 1473 1474 1476 1478 1480 1482 1483 1486 1488 1489 1491 1492 1493 1494 1494 1495 1496 1497 1498 1499 1500 1501 1502 1503 1504 1504 1506 1506 1507 1507 1508 1508 1508 1508
1463 1464 1464 1465 1465 1466 1467 1468 1469 1470 1471 1473 1475 1476 1478 1479 1481 1483 1484 1485 1487 1488 1489 1490 1490 1491 1492 1492 1493 1494 1495 1496 1497 1498 1499 1500 1501 1502 1502 1502 1503 1503 1503
1463 1463 1464 1464 1464 1465 1466 1466 1467 1468 1469 1469 1471 1472 1474 1475 1476 1478 1479 1480 1482 1483 1484 1485 1486 1486 1487 1487 1488 1489 1489 1490 1491 1492 1493 1494 1495 1496 1497 1497 1497 1498 1498
1462 1463 1463 1463 1463 1463 1464 1464 1464 1465 1466 1466 1468 1469 1470 1471 1472 1474 1475 1476 1478 1478 1479 1480 1481 1482 1482 1483 1484 1484 1484 1484 1485 1486 1488 1488 1489 1490 1491 1491 1492 1492 1492
1461 1462 1462 1461 1461 1461 1460 1461 1462 1462 1462 1463 1464 1465 1466 1467 1468 1470 1471 1472 1473 1474 1474 1475 1476 1477 1478 1479 1480 1480 1480 1480 1480 1481 1482 1483 1483 1484 1485 1486 1486 1486 1487
1460 1460 1459 1459 1460 1459 1459 1458 1458 1458 1459 1460 1461 1462 1462 1463 1464 1465 1467 1468 1469 1469 1469 1471 1472 1472 1473 1474 1475 1476 1476 1476 1476 1476 1477 1477 1478 1478 1479 1480 1481 1481 1482
1458 1458 1458 1458 1458 1458 1457 1457 1456 1457 1457 1457 1458 1458 1459 1459 1460 1461 1462 1463 1464 1464 1465 1466 1467 1467 1468 1469 1470 1471 1471 1471 1472 1472 1472 1472 1473 1473 1474 1474 1475 1476 1476
1457 1456 1456 1456 1455 1455 1455 1454 1454 1454 1454 1454 1454 1454 1455 1455 1456 1457 1458 1458 1459 1459 1460 1461 1461 1463 1464 1464 1465 1466 1466 1466 1466 1467 1467 1467 1467 1468 1469 1469 1470 1470 1471
1455 1454 1454 1453 1453 1453 1452 1452 1452 1451 1451 1450 1450 1450 1451 1451 1451 1452 1453 1454 1455 1455 1456 1456 1457 1459 1459 1459 1460 1461 1461 1461 1461 1461 1461 1462 1462 1462 1463 1464 1464 1465 1465
1452 1452 1451 1451 1451 1450 1450 1449 1449 1448 1448 1447 1447 1447 1447 1447 1447 1448 1449 1451 1451 1452 1453 1453 1453 1454 1455 1455 1456 1456 1456 1456 1457 1457 1456 1456 1457 1458 1458 1459 1459 1460 1460